TimeMDT,TemperatureF,Dew PointF,Humidity,Sea Level PressureIn,VisibilityMPH,Wind Direction,Wind SpeedMPH,Gust SpeedMPH,PrecipitationIn,Events,Conditions,WindDirDegrees,DateUTC
12:15 AM,62.6,53.6,72,30.27,10.0,WNW,3.5,-,N/A,,Overcast,300,2013-07-25 06:15:00
12:35 AM,62.6,53.6,72,30.26,10.0,Calm,Calm,-,N/A,,Overcast,0,2013-07-25 06:35:00
12:55 AM,62.6,53.6,72,30.25,10.0,Calm,Calm,-,N/A,,Overcast,0,2013-07-25 06:55:00
1:15 AM,62.6,53.6,72,30.24,10.0,NNW,3.5,-,N/A,,Overcast,330,2013-07-25 07:15:00
1:35 AM,62.6,53.6,72,30.23,10.0,Calm,Calm,-,N/A,,Overcast,0,2013-07-25 07:35:00
1:55 AM,62.6,53.6,72,30.21,10.0,Calm,Calm,-,N/A,,Mostly Cloudy,0,2013-07-25 07:55:00
2:15 AM,62.6,53.6,72,30.19,10.0,SE,6.9,-,N/A,,Scattered Clouds,140,2013-07-25 08:15:00
2:35 AM,60.8,53.6,77,30.17,10.0,SSE,8.1,-,N/A,,Partly Cloudy,160,2013-07-25 08:35:00
2:55 AM,60.8,53.6,77,30.17,10.0,SSE,6.9,-,N/A,,Clear,150,2013-07-25 08:55:00
3:15 AM,60.8,53.6,77,30.15,10.0,ESE,6.9,-,N/A,,Clear,120,2013-07-25 09:15:00
3:35 AM,60.8,53.6,77,30.15,10.0,SE,5.8,-,N/A,,Mostly Cloudy,130,2013-07-25 09:35:00
3:55 AM,60.8,53.6,77,30.16,10.0,SSE,3.5,-,N/A,,Overcast,150,2013-07-25 09:55:00
4:15 AM,60.8,53.6,77,30.15,10.0,Calm,Calm,-,N/A,,Mostly Cloudy,0,2013-07-25 10:15:00
4:35 AM,60.8,53.6,77,30.14,10.0,ENE,4.6,-,N/A,,Mostly Cloudy,70,2013-07-25 10:35:00
4:55 AM,60.8,53.6,77,30.14,10.0,Calm,Calm,-,N/A,,Scattered Clouds,0,2013-07-25 10:55:00
5:15 AM,59.0,53.6,82,30.14,10.0,Calm,Calm,-,N/A,,Clear,0,2013-07-25 11:15:00
5:35 AM,57.2,53.6,88,30.14,10.0,Calm,Calm,-,N/A,,Clear,0,2013-07-25 11:35:00
5:55 AM,57.2,53.6,88,30.14,10.0,SE,3.5,-,N/A,,Clear,130,2013-07-25 11:55:00
6:15 AM,59.0,53.6,82,30.14,10.0,Calm,Calm,-,N/A,,Partly Cloudy,0,2013-07-25 12:15:00
6:35 AM,60.8,53.6,77,30.15,10.0,Calm,Calm,-,N/A,,Mostly Cloudy,0,2013-07-25 12:35:00
6:55 AM,60.8,55.4,82,30.15,10.0,Calm,Calm,-,N/A,,Mostly Cloudy,0,2013-07-25 12:55:00
7:15 AM,59.0,55.4,88,30.15,10.0,Calm,Calm,-,N/A,,Overcast,0,2013-07-25 13:15:00
7:35 AM,60.8,55.4,82,30.15,10.0,NW,4.6,-,N/A,,Mostly Cloudy,310,2013-07-25 13:35:00
8:15 AM,62.6,55.4,77,30.15,10.0,West,5.8,-,N/A,,Overcast,260,2013-07-25 14:15:00
8:35 AM,62.6,55.4,77,30.15,10.0,Calm,Calm,-,N/A,,Overcast,0,2013-07-25 14:35:00
9:15 AM,64.4,57.2,77,30.16,10.0,East,5.8,-,N/A,,Scattered Clouds,90,2013-07-25 15:15:00
9:35 AM,66.2,57.2,73,30.16,10.0,Calm,Calm,-,N/A,,Clear,0,2013-07-25 15:35:00
9:55 AM,69.8,57.2,64,30.17,10.0,South,4.6,-,N/A,,Clear,170,2013-07-25 15:55:00
10:15 AM,68.0,57.2,68,30.17,10.0,Calm,Calm,-,N/A,,Partly Cloudy,0,2013-07-25 16:15:00
10:35 AM,69.8,57.2,64,30.19,10.0,Calm,Calm,-,N/A,,Partly Cloudy,0,2013-07-25 16:35:00
10:55 AM,71.6,57.2,60,30.21,10.0,North,6.9,-,N/A,,Mostly Cloudy,10,2013-07-25 16:55:00
11:15 AM,73.4,59.0,61,30.22,10.0,North,13.8,17.3,N/A,,Overcast,10,2013-07-25 17:15:00
11:35 AM,73.4,55.4,53,30.22,10.0,NNE,11.5,-,N/A,,Overcast,30,2013-07-25 17:35:00
11:55 AM,73.4,57.2,57,30.23,10.0,NE,10.4,-,N/A,,Scattered Clouds,40,2013-07-25 17:55:00
12:15 PM,73.4,57.2,57,30.22,10.0,NE,11.5,21.9,N/A,,Partly Cloudy,40,2013-07-25 18:15:00
12:35 PM,75.2,57.2,53,30.21,10.0,East,9.2,17.3,N/A,,Clear,80,2013-07-25 18:35:00
12:55 PM,75.2,57.2,53,30.23,6.0,Calm,Calm,-,N/A,,Clear,0,2013-07-25 18:55:00
1:15 PM,73.4,57.2,57,30.23,10.0,NW,4.6,-,N/A,Thunderstorm,Scattered Clouds,310,2013-07-25 19:15:00
1:55 PM,68.0,57.2,68,30.24,10.0,West,9.2,-,N/A,,Overcast,270,2013-07-25 19:55:00
2:15 PM,69.8,57.2,64,30.23,10.0,WSW,8.1,-,N/A,,Scattered Clouds,250,2013-07-25 20:15:00
3:15 PM,69.8,59.0,68,30.26,10.0,West,9.2,-,N/A,Thunderstorm,Thunderstorm,260,2013-07-25 21:15:00
3:35 PM,68.0,59.0,73,30.28,10.0,West,10.4,-,N/A,Thunderstorm,Overcast,270,2013-07-25 21:35:00
3:55 PM,64.4,55.4,73,30.27,10.0,West,12.7,17.3,N/A,,Mostly Cloudy,270,2013-07-25 21:55:00
4:15 PM,66.2,57.2,73,30.26,10.0,West,10.4,-,N/A,,Partly Cloudy,270,2013-07-25 22:15:00
4:35 PM,66.2,55.4,68,30.26,10.0,WSW,10.4,-,N/A,,Clear,250,2013-07-25 22:35:00
4:55 PM,68.0,55.4,64,30.25,10.0,West,10.4,-,N/A,,Clear,260,2013-07-25 22:55:00
5:15 PM,69.8,55.4,60,30.23,10.0,WSW,5.8,-,N/A,,Clear,250,2013-07-25 23:15:00
5:35 PM,71.6,55.4,57,30.23,10.0,Calm,Calm,-,N/A,,Clear,0,2013-07-25 23:35:00
5:55 PM,73.4,57.2,57,30.23,10.0,West,4.6,-,N/A,,Clear,270,2013-07-25 23:55:00
6:15 PM,73.4,55.4,53,30.23,10.0,North,4.6,-,N/A,,Clear,350,2013-07-26 00:15:00
6:35 PM,73.4,55.4,53,30.23,10.0,NNE,4.6,-,N/A,,Clear,20,2013-07-26 00:35:00
6:55 PM,73.4,55.4,53,30.23,10.0,North,5.8,-,N/A,,Clear,360,2013-07-26 00:55:00
7:15 PM,71.6,57.2,60,30.23,10.0,North,6.9,-,N/A,,Clear,360,2013-07-26 01:15:00
7:35 PM,71.6,55.4,57,30.24,10.0,NNW,3.5,-,N/A,,Clear,330,2013-07-26 01:35:00
7:55 PM,69.8,57.2,64,30.25,10.0,NNW,4.6,-,N/A,,Clear,330,2013-07-26 01:55:00
8:15 PM,69.8,55.4,60,30.24,10.0,Calm,Calm,-,N/A,,Clear,0,2013-07-26 02:15:00
8:35 PM,69.8,55.4,60,30.24,10.0,Calm,Calm,-,N/A,,Clear,0,2013-07-26 02:35:00
8:55 PM,66.2,55.4,68,30.25,10.0,Calm,Calm,-,N/A,,Clear,0,2013-07-26 02:55:00
9:15 PM,66.2,55.4,68,30.26,10.0,WNW,3.5,-,N/A,,Clear,290,2013-07-26 03:15:00
9:35 PM,66.2,57.2,73,30.26,10.0,WSW,4.6,-,N/A,,Clear,240,2013-07-26 03:35:00
9:55 PM,66.2,57.2,73,30.28,10.0,Calm,Calm,-,N/A,,Clear,0,2013-07-26 03:55:00
10:15 PM,66.2,57.2,73,30.28,10.0,Calm,Calm,-,N/A,,Scattered Clouds,0,2013-07-26 04:15:00
10:35 PM,66.2,57.2,73,30.28,10.0,WSW,3.5,-,N/A,,Mostly Cloudy,240,2013-07-26 04:35:00
10:55 PM,66.2,57.2,73,30.29,10.0,NW,3.5,-,N/A,,Partly Cloudy,310,2013-07-26 04:55:00
11:15 PM,66.2,55.4,68,30.29,10.0,Calm,Calm,-,N/A,,Clear,0,2013-07-26 05:15:00
11:35 PM,64.4,57.2,77,30.29,10.0,Calm,Calm,-,N/A,,Clear,0,2013-07-26 05:35:00
11:55 PM,66.2,55.4,68,30.27,10.0,ESE,9.2,-,N/A,,Mostly Cloudy,120,2013-07-26 05:55:00